This is the latest recevied weather packets stored in our database for station/object W1HS. If no packets are shown the sender has not sent any weather packets the latest 10 day(s).
| Time | Temp. | Humidity | Pressure | Rain* | Wind** | Luminosity | Snow |
|---|---|---|---|---|---|---|---|
| 1777544599 | 6.67° C | 94% | 987.8 hPa | 0.51 mm | - | 7 W/m² | - |
| 1777543999 | 6.67° C | 94% | 987.9 hPa | 1.02 mm | - | 0 W/m² | - |
| 1777543399 | 6.67° C | 94% | 987.9 hPa | 1.02 mm | - | 0 W/m² | - |
| 1777542799 | 6.67° C | 94% | 987.9 hPa | 1.52 mm | - | 0 W/m² | - |
| 1777542199 | 6.67° C | 94% | 987.9 hPa | 1.27 mm | - | 0 W/m² | - |
| 1777541601 | 6.67° C | 94% | 988 hPa | 1.78 mm | - | 0 W/m² | - |
| 1777540999 | 6.67° C | 94% | 988.2 hPa | 2.03 mm | - | 0 W/m² | - |
| 1777540399 | 6.67° C | 94% | 988.4 hPa | 2.03 mm | - | 0 W/m² | - |
| 1777539799 | 6.67° C | 94% | 988.5 hPa | 2.29 mm | - | 0 W/m² | - |
| 1777539201 | 6.67° C | 93% | 988.7 hPa | 2.03 mm | - | 0 W/m² | - |
| 1777538599 | 6.67° C | 93% | 988.6 hPa | 2.54 mm | - | 0 W/m² | - |
| 1777537999 | 6.67° C | 92% | 988.3 hPa | 2.54 mm | - | 0 W/m² | - |
| 1777537401 | 6.67° C | 92% | 988.2 hPa | 2.29 mm | - | 0 W/m² | - |
| 1777536799 | 6.67° C | 92% | 988.2 hPa | 2.03 mm | - | 0 W/m² | - |
| 1777536199 | 6.67° C | 92% | 988.5 hPa | 2.03 mm | - | 0 W/m² | - |
| 1777535750 | 6.67° C | 92% | 988.6 hPa | 2.03 mm | - | 0 W/m² | - |
| 1777535059 | 6.67° C | 92% | 988.7 hPa | 1.52 mm | - | 0 W/m² | - |
| 1777534459 | 7.22° C | 91% | 988.7 hPa | 1.27 mm | - | 0 W/m² | - |
| 1777533858 | 7.22° C | 91% | 988.9 hPa | 0.76 mm | - | 0 W/m² | - |
| 1777533260 | 7.22° C | 91% | 988.9 hPa | 0.51 mm | - | 0 W/m² | - |
| 1777532659 | 7.22° C | 90% | 989.1 hPa | 0.25 mm | - | 0 W/m² | - |
| 1777532061 | 7.22° C | 90% | 989.2 hPa | 0 mm | - | 0 W/m² | - |
| 1777531461 | 7.22° C | 89% | 989.3 hPa | 0 mm | - | 0 W/m² | - |
| 1777530859 | 6.67° C | 89% | 989.5 hPa | 0 mm | - | 0 W/m² | - |
| 1777530258 | 6.67° C | 89% | 989.5 hPa | 0 mm | - | 0 W/m² | - |
* Rain latest hour (hover to see other rain measurements)
** Current wind speed in m/s (hover to see current wind gust speed)